Linden, WI

5:19 AM CDT on August 27, 2016 (GMT -0500)
Iowa County

Weather History for KMRJ - April, 2013

Change the Weather History Date:

Thursday, April 18, 2013

  Actual Average (KLNR) Record (KLNR)
Temperature  
Mean Temperature 47 °F -  
Max Temperature 59 °F 56 °F 80 °F (2016)
Min Temperature 35 °F 35 °F 23 °F (2001)
Degree Days  
Heating Degree Days 18    
Moisture  
Dew Point 44 °F    
Average Humidity 91    
Maximum Humidity 94    
Minimum Humidity 76    
Precipitation  
Precipitation 0.34 in - - ()
Sea Level Pressure  
Sea Level Pressure 29.51 in    
Wind  
Wind Speed 13 mph (East)    
Max Wind Speed 29 mph    
Max Gust Speed 38 mph    
Visibility 5 miles    
Events Fog , Rain , Snow    
Averages and records for this station are not official NWS values.
T = Trace of Precipitation, MM = Missing Value Source: NWS Daily Summary

Daily Weather History Graph

Daily Weather History Graph

Search for Another Location

Airport or City:

Trip Planner

Search our weather history database for the weather conditions in past years. The results will help you decide how hot, cold, wet, or windy it might be!

Date:

Astronomy

Apr. 18, 2013 Rise Set
Actual Time 6:14 AM CDT 7:47 PM CDT
Civil Twilight 5:44 AM CDT 8:16 PM CDT
Nautical Twilight 5:08 AM CDT 8:52 PM CDT
Astronomical Twilight 4:30 AM CDT 9:31 PM CDT
Moon 12:24 PM CDT (4/18) 2:03 AM CDT (4/18)
Length of Visible Light 14h 32m
Length of Day
13h 33m
First Quarter, 52% of the Moon is Illuminated
Apr 18
First Quarter
Apr 25
Full
May 2
Last Quarter
May 9
New
May 17
First Quarter

Hourly Weather History & Observations

Time (CDT) Temp. Windchill Dew Point Humidity Pressure Visibility Wind Dir Wind Speed Gust Speed Precip Events Conditions
12:15 AM 42.8 °F 34.5 °F 41.0 °F 93% 29.78 in 4.0 mi East 18.4 mph - 0.07 in Rain Rain
12:35 AM 42.8 °F 34.3 °F 41.0 °F 93% 29.76 in 10.0 mi East 19.6 mph 24.2 mph 0.09 in Rain Light Rain
12:55 AM 42.8 °F 35.1 °F 41.0 °F 93% 29.75 in 10.0 mi ESE 16.1 mph 19.6 mph 0.10 in Rain Rain
1:15 AM 42.8 °F 34.8 °F 41.0 °F 93% 29.73 in 5.0 mi ESE 17.3 mph 25.3 mph 0.03 in Rain Rain
1:35 AM 42.8 °F 34.8 °F 41.0 °F 93% 29.67 in 5.0 mi ESE 17.3 mph 25.3 mph 0.04 in Rain Light Rain
1:55 AM 44.6 °F 38.8 °F 42.8 °F 93% 29.65 in 10.0 mi ESE 11.5 mph 29.9 mph 0.05 in Rain Light Rain
2:15 AM 44.6 °F 37.4 °F 42.8 °F 93% 29.62 in 10.0 mi ESE 16.1 mph 24.2 mph N/A Rain Light Rain
2:35 AM 46.4 °F 38.3 °F 42.8 °F 87% 29.59 in 7.0 mi SE 23.0 mph 31.1 mph 0.01 in Rain Light Rain
2:55 AM 46.4 °F 40.7 °F 44.6 °F 93% 29.61 in 7.0 mi ESE 12.7 mph 19.6 mph 0.01 in Rain Light Rain
3:15 AM 48.2 °F - 46.4 °F 93% 29.63 in 10.0 mi SE 11.5 mph - N/A Rain Light Rain
3:35 AM 50.0 °F - 46.4 °F 87% 29.65 in 7.0 mi WNW 3.5 mph - N/A Rain Light Rain
3:55 AM 48.2 °F - 44.6 °F 87% 29.63 in 5.0 mi North 5.8 mph - N/A   Unknown
4:15 AM 48.2 °F - 44.6 °F 87% 29.62 in 3.0 mi Calm Calm - N/A Rain Light Rain
4:35 AM 48.2 °F - 46.4 °F 93% 29.60 in 5.0 mi NE 4.6 mph - N/A Rain Light Rain
4:55 AM 48.2 °F - 46.4 °F 93% 29.54 in 3.0 mi East 13.8 mph - N/A   Overcast
5:15 AM 50.0 °F - 46.4 °F 87% 29.53 in 3.0 mi NNE 6.9 mph - N/A Rain Light Rain
5:35 AM 50.0 °F - 46.4 °F 87% 29.53 in 4.0 mi North 6.9 mph - 0.01 in Rain Light Rain
5:55 AM 44.6 °F 39.7 °F 42.8 °F 93% 29.62 in 0.5 mi NNW 9.2 mph 17.3 mph 0.01 in Rain Light Rain
6:15 AM 44.6 °F 41.4 °F 42.8 °F 93% 29.62 in 0.8 mi NNW 5.8 mph - 0.01 in Rain Rain
6:35 AM 46.4 °F 41.9 °F 44.6 °F 93% 29.59 in 2.0 mi NE 9.2 mph - 0.02 in Rain Light Rain
6:55 AM 46.4 °F 44.3 °F 44.6 °F 93% 29.59 in 3.0 mi NNE 4.6 mph - 0.03 in Rain Light Rain
7:15 AM 46.4 °F 43.5 °F 44.6 °F 93% 29.60 in 2.0 mi NNW 5.8 mph - N/A Rain Light Rain
7:35 AM 44.6 °F 42.2 °F 42.8 °F 93% 29.61 in 2.5 mi North 4.6 mph - N/A Rain Light Rain
7:55 AM 44.6 °F 42.2 °F 42.8 °F 93% 29.61 in 2.5 mi NNW 4.6 mph - 0.01 in Rain Light Rain
8:15 AM 44.6 °F 40.2 °F 42.8 °F 93% 29.60 in 1.2 mi NNW 8.1 mph - 0.01 in Rain Light Rain
8:35 AM 44.6 °F 38.1 °F 42.8 °F 93% 29.59 in 2.0 mi NNW 13.8 mph 17.3 mph 0.01 in Rain Light Rain
8:55 AM 44.6 °F 39.7 °F 42.8 °F 93% 29.58 in 1.5 mi NNW 9.2 mph - 0.01 in Rain Light Rain
9:15 AM 42.8 °F 36.2 °F 41.0 °F 93% 29.54 in 4.0 mi NNE 12.7 mph 18.4 mph N/A   Overcast
9:35 AM 44.6 °F 40.7 °F 42.8 °F 93% 29.56 in 7.0 mi NE 6.9 mph - N/A   Overcast
9:55 AM 44.6 °F 41.4 °F 42.8 °F 93% 29.57 in 4.0 mi NE 5.8 mph - N/A   Overcast
10:15 AM 44.6 °F 41.4 °F 42.8 °F 93% 29.55 in 2.5 mi NE 5.8 mph - N/A   Overcast
10:35 AM 46.4 °F 41.9 °F 44.6 °F 93% 29.53 in 1.2 mi NE 9.2 mph - N/A   Overcast
10:55 AM 46.4 °F 42.4 °F 44.6 °F 93% 29.53 in 1.2 mi ENE 8.1 mph - N/A   Overcast
11:15 AM 46.4 °F - 44.6 °F 93% 29.57 in 4.0 mi Calm Calm - N/A   Overcast
11:35 AM 46.4 °F 45.2 °F 44.6 °F 93% 29.55 in 2.5 mi East 3.5 mph - N/A   Overcast
11:55 AM 48.2 °F - 46.4 °F 93% 29.52 in 1.2 mi East 8.1 mph - N/A   Overcast
12:15 PM 48.2 °F - 46.4 °F 93% 29.49 in 0.8 mi ENE 8.1 mph - N/A   Overcast
12:35 PM 50.0 °F - 46.4 °F 87% 29.49 in 0.5 mi East 8.1 mph - N/A Fog Fog
12:55 PM 50.0 °F - 46.4 °F 87% 29.49 in 0.2 mi East 6.9 mph - N/A Fog Fog
1:15 PM 50.0 °F - 48.2 °F 94% 29.47 in 0.5 mi East 9.2 mph - N/A Fog Fog
1:35 PM 50.0 °F - 48.2 °F 94% 29.46 in 0.5 mi East 9.2 mph - N/A Fog Fog
1:55 PM 51.8 °F - 48.2 °F 88% 29.44 in 0.2 mi East 10.4 mph - N/A Fog Fog
2:15 PM 51.8 °F - 50.0 °F 94% 29.43 in 0.5 mi East 10.4 mph - N/A Fog Fog
2:35 PM 51.8 °F - 50.0 °F 94% 29.45 in 0.2 mi ESE 9.2 mph - N/A Fog Fog
2:55 PM 53.6 °F - 51.8 °F 94% 29.43 in 0.2 mi ESE 9.2 mph - N/A Fog Fog
3:15 PM 53.6 °F - 51.8 °F 94% 29.38 in 0.2 mi East 11.5 mph - N/A Fog Fog
3:35 PM 53.6 °F - 51.8 °F 94% 29.37 in 0.2 mi East 8.1 mph - 0.01 in Rain Rain
3:55 PM 55.4 °F - 51.8 °F 88% 29.36 in 1.8 mi ESE 9.2 mph - 0.02 in Rain Light Rain
4:15 PM 55.4 °F - 51.8 °F 88% 29.34 in 1.8 mi ESE 8.1 mph - 0.04 in Rain Rain
4:35 PM 55.4 °F - 53.6 °F 94% 29.33 in 0.8 mi SE 12.7 mph 16.1 mph 0.07 in Rain Rain
4:55 PM 59.0 °F - 57.2 °F 94% 29.32 in 3.0 mi SSE 18.4 mph 24.2 mph 0.09 in Rain Light Rain
5:15 PM 55.4 °F - 53.6 °F 94% 29.34 in 5.0 mi SW 19.6 mph 38.0 mph 0.01 in Rain Light Rain
5:35 PM 55.4 °F - 53.6 °F 94% 29.33 in 5.0 mi SSW 21.9 mph 26.5 mph 0.01 in   Overcast
5:55 PM 51.8 °F - 50.0 °F 94% 29.34 in 10.0 mi SW 27.6 mph 33.4 mph 0.01 in Rain Light Rain
6:15 PM 50.0 °F - 46.4 °F 87% 29.36 in 10.0 mi SSW 20.7 mph 26.5 mph N/A   Overcast
6:35 PM 46.4 °F 38.7 °F 44.6 °F 93% 29.38 in 10.0 mi SW 20.7 mph 29.9 mph N/A   Overcast
6:55 PM 46.4 °F 37.9 °F 42.8 °F 87% 29.36 in 10.0 mi SW 25.3 mph 33.4 mph N/A   Overcast
7:15 PM 44.6 °F 34.9 °F 41.0 °F 87% 29.38 in 10.0 mi SW 28.8 mph 36.8 mph N/A   Overcast
7:35 PM 44.6 °F 35.1 °F 37.4 °F 76% 29.38 in 10.0 mi SW 27.6 mph 35.7 mph N/A   Overcast
7:55 PM 42.8 °F 33.3 °F 37.4 °F 81% 29.39 in 10.0 mi SW 24.2 mph 35.7 mph N/A   Overcast
8:15 PM 42.8 °F 33.5 °F 37.4 °F 81% 29.42 in 10.0 mi SW 23.0 mph 29.9 mph N/A   Overcast
8:35 PM 41.0 °F 31.1 °F 35.6 °F 81% 29.44 in 10.0 mi SW 23.0 mph 31.1 mph N/A Rain Light Rain
9:55 PM 37.4 °F 26.9 °F 33.8 °F 87% 29.45 in 10.0 mi SW 20.7 mph 32.2 mph N/A   Overcast
10:15 PM 37.4 °F 26.9 °F 33.8 °F 87% 29.44 in 10.0 mi SW 20.7 mph 29.9 mph N/A   Overcast
10:35 PM 35.6 °F 25.9 °F 33.8 °F 93% 29.44 in 5.0 mi WSW 16.1 mph 27.6 mph N/A Snow Light Snow
10:55 PM 35.6 °F 25.5 °F 32.0 °F 87% 29.44 in 10.0 mi WSW 17.3 mph 27.6 mph N/A   Overcast
11:15 PM 35.6 °F 24.8 °F 32.0 °F 87% 29.44 in 10.0 mi WSW 19.6 mph 25.3 mph N/A   Overcast
11:35 PM 35.6 °F 25.2 °F 32.0 °F 87% 29.43 in 10.0 mi WSW 18.4 mph 23.0 mph N/A   Overcast
11:55 PM 35.6 °F 24.8 °F 32.0 °F 87% 29.42 in 7.0 mi WSW 19.6 mph 31.1 mph N/A Snow Light Snow